Simultaneous Nadir Overpasses (SNOs) Predictions

Prediction of SNOs between AQUA and NOAA-19 Satellite Orbit:

Table of predicted SNOs for the next 14.0 days since TLE Epoch: 6/21/2014
Index Date (AQUA) Time (AQUA) Lat,Lon (AQUA) SZA (AQUA ) Date (NOAA-19) Time (NOAA-19) Lat,Lon (NOAA-19) SZA (NOAA-19 ) Distance(km) Time Diff (sec)
1 06/21/2014 15:13:33 -76.30, 119.56 126.85 06/21/2014 15:13:37 -76.30, 119.55 126.84 0.33 4
2 06/23/2014 19:57:54 -76.57, 47.60 126.51 06/23/2014 19:57:34 -76.57, 47.57 126.49 0.94 20
3 06/23/2014 20:45:53 72.05,-133.77 48.56 06/23/2014 20:47:06 72.15,-132.93 48.65 31.18 73
4 06/26/2014 00:42:15 -76.84, -24.43 126.12 06/26/2014 00:41:31 -76.84, -24.46 126.10 0.95 44
5 06/26/2014 01:31:23 75.97, 146.11 52.86 06/26/2014 01:32:14 75.97, 146.13 52.85 0.38 51
6 06/28/2014 05:26:33 -77.03, -96.18 125.80 06/28/2014 05:25:25 -77.03, -96.19 125.78 0.40 68
7 06/28/2014 06:15:46 76.36, 73.80 53.41 06/28/2014 06:16:13 76.37, 73.72 53.42 2.46 27
8 06/30/2014 11:00:03 76.47, 2.38 53.66 06/30/2014 11:00:05 76.46, 2.43 53.65 1.45 2
9 07/02/2014 15:44:24 76.77, -69.74 54.18 07/02/2014 15:44:02 76.78, -69.75 54.19 0.40 22
10 07/02/2014 16:33:34 -76.01, 100.44 126.72 07/02/2014 16:34:46 -76.01, 100.43 126.73 0.31 72
11 07/04/2014 20:28:44 77.04,-141.77 54.69 07/04/2014 20:27:58 77.05,-141.83 54.72 1.66 46
